• In United Kingdom
  • List of Countries
  • For 7 days
  • Water Temperature
  • Satellite Maps
  • Weather Map
  • Weather Widgets
  • user-avatar
    Login

    Hourly Weather Santiago de Compostela

    Today, 23 May, Wednesday

    Time Temperature Precipitation Wind Pressure Humidity
    00:00 +13°C° 0 mm 1 mps 740 mmHg 94%
    01:00 +13°C° 0 mm 1 mps 740 mmHg 93%
    02:00 +13°C° 0 mm 1 mps 740 mmHg 93%
    03:00 +13°C° 0 mm 1 mps 740 mmHg 91%
    04:00 +13°C° 0 mm 1 mps 740 mmHg 88%
    05:00 +14°C° 0 mm 1 mps 740 mmHg 83%
    06:00 +16°C° 0 mm 1 mps 740 mmHg 78%
    07:00 +19°C° 0 mm 1 mps 740 mmHg 72%
    08:00 +20°C° 0 mm 1 mps 740 mmHg 67%
    09:00 +22°C° 0.4 mm 1 mps 740 mmHg 64%
    10:00 +24°C° 0.4 mm 1 mps 740 mmHg 62%
    11:00 +25°C° 0.4 mm 2 mps 740 mmHg 59%
    12:00 +25°C° 0.6 mm 2 mps 740 mmHg 63%
    13:00 +24°C° 0.6 mm 2 mps 740 mmHg 67%
    14:00 +24°C° 0.6 mm 2 mps 740 mmHg 71%
    15:00 +23°C° 0.5 mm 2 mps 740 mmHg 73%
    16:00 +21°C° 0.5 mm 2 mps 740 mmHg 75%
    17:00 +21°C° 0.5 mm 1 mps 740 mmHg 77%
    18:00 +20°C° 0.1 mm 1 mps 740 mmHg 81%
    19:00 +18°C° 0.1 mm 1 mps 740 mmHg 86%
    20:00 +16°C° 0.1 mm 1 mps 740 mmHg 91%
    21:00 +16°C° 0 mm 1 mps 740 mmHg 92%
    22:00 +15°C° 0 mm 1 mps 740 mmHg 94%
    23:00 +15°C° 0 mm 1 mps 740 mmHg 95%

    Tomorrow, 24 May, Thursday

    Time Temperature Precipitation Wind Pressure Humidity
    00:00 +14°C° 0 mm 1 mps 740 mmHg 96%
    01:00 +14°C° 0 mm 1 mps 739 mmHg 97%
    02:00 +14°C° 0 mm 1 mps 739 mmHg 97%
    03:00 +14°C° 0 mm 1 mps 739 mmHg 97%
    04:00 +14°C° 0 mm 1 mps 739 mmHg 96%
    05:00 +14°C° 0 mm 1 mps 739 mmHg 96%
    06:00 +17°C° 0 mm 2 mps 739 mmHg 85%
    07:00 +19°C° 0 mm 2 mps 739 mmHg 75%
    08:00 +23°C° 0 mm 2 mps 740 mmHg 64%
    09:00 +24°C° 0 mm 2 mps 740 mmHg 57%
    10:00 +26°C° 0 mm 3 mps 740 mmHg 50%
    11:00 +27°C° 0 mm 3 mps 739 mmHg 42%
    12:00 +26°C° 0.1 mm 3 mps 739 mmHg 49%
    13:00 +25°C° 0.1 mm 4 mps 739 mmHg 55%
    14:00 +23°C° 0.1 mm 4 mps 739 mmHg 62%
    15:00 +22°C° 0.5 mm 4 mps 739 mmHg 71%
    16:00 +20°C° 0.5 mm 3 mps 739 mmHg 80%
    17:00 +19°C° 0.5 mm 3 mps 738 mmHg 90%
    18:00 +18°C° 0.1 mm 3 mps 738 mmHg 90%
    19:00 +17°C° 0.1 mm 4 mps 739 mmHg 90%
    20:00 +15°C° 0.1 mm 4 mps 739 mmHg 91%
    21:00 +14°C° 0.5 mm 4 mps 738 mmHg 91%
    22:00 +14°C° 0.5 mm 4 mps 738 mmHg 92%
    23:00 +14°C° 0.5 mm 4 mps 738 mmHg 93%

    Day after tomorrow, 25 May, Friday

    Time Temperature Precipitation Wind Pressure Humidity
    00:00 +14°C° 0.9 mm 4 mps 738 mmHg 95%
    01:00 +14°C° 0.9 mm 4 mps 738 mmHg 96%
    02:00 +14°C° 0.9 mm 4 mps 737 mmHg 98%
    03:00 +14°C° 0.6 mm 4 mps 738 mmHg 98%
    04:00 +14°C° 0.6 mm 4 mps 738 mmHg 98%
    05:00 +14°C° 0.6 mm 4 mps 738 mmHg 98%
    06:00 +16°C° 0.4 mm 3 mps 738 mmHg 95%
    07:00 +17°C° 0.4 mm 3 mps 738 mmHg 93%
    08:00 +18°C° 0.4 mm 3 mps 739 mmHg 91%
    09:00 +18°C° 0.5 mm 3 mps 739 mmHg 90%
    10:00 +19°C° 0.5 mm 3 mps 739 mmHg 89%
    11:00 +19°C° 0.5 mm 3 mps 739 mmHg 87%
    12:00 +19°C° 0.7 mm 3 mps 739 mmHg 88%
    13:00 +18°C° 0.7 mm 3 mps 738 mmHg 90%
    14:00 +18°C° 0.7 mm 3 mps 738 mmHg 91%
    15:00 +18°C° 0.4 mm 3 mps 738 mmHg 91%
    16:00 +17°C° 0.4 mm 3 mps 738 mmHg 91%
    17:00 +17°C° 0.4 mm 3 mps 738 mmHg 91%
    18:00 +17°C° 0.3 mm 3 mps 738 mmHg 92%
    19:00 +16°C° 0.3 mm 3 mps 738 mmHg 93%
    20:00 +14°C° 0.3 mm 3 mps 738 mmHg 94%
    21:00 +14°C° 0.2 mm 3 mps 738 mmHg 95%
    22:00 +14°C° 0.2 mm 3 mps 738 mmHg 95%
    23:00 +14°C° 0.2 mm 3 mps 738 mmHg 96%

    26 May, Saturday

    Time Temperature Precipitation Wind Pressure Humidity
    00:00 +14°C° 0.4 mm 3 mps 738 mmHg 97%
    01:00 +14°C° 0.4 mm 3 mps 737 mmHg 98%
    02:00 +14°C° 0.4 mm 3 mps 737 mmHg 98%
    03:00 +15°C° 1.5 mm 2 mps 737 mmHg 98%
    04:00 +15°C° 1.5 mm 2 mps 737 mmHg 99%
    05:00 +15°C° 1.5 mm 2 mps 737 mmHg 99%
    06:00 +15°C° 1.9 mm 2 mps 737 mmHg 98%
    07:00 +15°C° 1.9 mm 2 mps 737 mmHg 98%
    08:00 +15°C° 1.9 mm 2 mps 737 mmHg 98%
    09:00 +15°C° 0.7 mm 2 mps 737 mmHg 97%
    10:00 +16°C° 0.7 mm 2 mps 737 mmHg 97%
    11:00 +16°C° 0.7 mm 2 mps 737 mmHg 97%
    12:00 +16°C° 0.7 mm 2 mps 737 mmHg 97%
    13:00 +15°C° 0.7 mm 2 mps 737 mmHg 97%
    14:00 +15°C° 0.7 mm 2 mps 737 mmHg 97%
    15:00 +15°C° 0.3 mm 1 mps 737 mmHg 96%
    16:00 +16°C° 0.3 mm 1 mps 737 mmHg 96%
    17:00 +16°C° 0.3 mm 1 mps 737 mmHg 95%
    18:00 +15°C° 0 mm 1 mps 738 mmHg 96%
    19:00 +14°C° 0 mm 1 mps 738 mmHg 97%
    20:00 +14°C° 0 mm 1 mps 739 mmHg 98%
    21:00 +13°C° 0 mm 1 mps 738 mmHg 99%
    22:00 +13°C° 0 mm 1 mps 738 mmHg 99%
    23:00 +12°C° 0 mm 1 mps 738 mmHg 99%

    27 May, Sunday

    Time Temperature Precipitation Wind Pressure Humidity
    00:00 +12°C° 0 mm 1 mps 738 mmHg 99%
    01:00 +12°C° 0 mm 1 mps 738 mmHg 99%
    02:00 +12°C° 0 mm 1 mps 738 mmHg 99%
    03:00 +13°C° 0 mm 1 mps 738 mmHg 99%
    04:00 +13°C° 0 mm 1 mps 739 mmHg 99%
    05:00 +13°C° 0 mm 1 mps 739 mmHg 98%
    06:00 +14°C° 0 mm 1 mps 739 mmHg 94%
    07:00 +15°C° 0 mm 1 mps 739 mmHg 89%
    08:00 +17°C° 0 mm 2 mps 740 mmHg 85%
    09:00 +18°C° 0.1 mm 2 mps 740 mmHg 78%
    10:00 +19°C° 0.1 mm 2 mps 740 mmHg 71%
    11:00 +20°C° 0.1 mm 3 mps 740 mmHg 65%
    12:00 +20°C° 0.1 mm 3 mps 740 mmHg 64%
    13:00 +20°C° 0.1 mm 3 mps 740 mmHg 64%
    14:00 +20°C° 0.1 mm 3 mps 740 mmHg 64%
    15:00 +19°C° 0.1 mm 3 mps 740 mmHg 70%
    16:00 +18°C° 0.1 mm 2 mps 740 mmHg 76%
    17:00 +17°C° 0.1 mm 2 mps 740 mmHg 83%
    18:00 +16°C° 0.1 mm 1 mps 741 mmHg 88%
    19:00 +15°C° 0.1 mm 1 mps 741 mmHg 93%
    20:00 +13°C° 0.1 mm 1 mps 741 mmHg 98%
    21:00 +12°C° 0 mm 0 mps 741 mmHg 98%
    22:00 +12°C° 0 mm 0 mps 741 mmHg 98%
    23:00 +11°C° 0 mm 0 mps 741 mmHg 99%

    28 May, Monday

    Time Temperature Precipitation Wind Pressure Humidity
    00:00 +11°C° 0 mm 0 mps 741 mmHg 99%
    01:00 +11°C° 0 mm 0 mps 740 mmHg 99%
    02:00 +11°C° 0 mm 0 mps 740 mmHg 99%
    03:00 +11°C° 0 mm 0 mps 740 mmHg 98%
    04:00 +11°C° 0 mm 0 mps 740 mmHg 98%
    05:00 +11°C° 0 mm 0 mps 740 mmHg 98%
    06:00 +12°C° 0 mm 0 mps 740 mmHg 93%
    07:00 +14°C° 0 mm 0 mps 740 mmHg 87%
    08:00 +15°C° 0 mm 0 mps 740 mmHg 82%
    09:00 +16°C° 0.1 mm 1 mps 740 mmHg 79%
    10:00 +18°C° 0.1 mm 1 mps 740 mmHg 76%
    11:00 +18°C° 0.1 mm 1 mps 740 mmHg 74%
    12:00 +18°C° 0.1 mm 1 mps 740 mmHg 75%
    13:00 +17°C° 0.1 mm 2 mps 740 mmHg 77%
    14:00 +17°C° 0.1 mm 2 mps 739 mmHg 78%
    15:00 +17°C° 0.1 mm 2 mps 739 mmHg 79%
    16:00 +17°C° 0.1 mm 2 mps 739 mmHg 80%
    17:00 +16°C° 0.1 mm 2 mps 739 mmHg 81%
    18:00 +16°C° 0.2 mm 1 mps 740 mmHg 86%
    19:00 +15°C° 0.2 mm 1 mps 740 mmHg 91%
    20:00 +14°C° 0.2 mm 1 mps 740 mmHg 95%
    21:00 +14°C° 0.2 mm 1 mps 740 mmHg 96%
    22:00 +13°C° 0.2 mm 1 mps 740 mmHg 97%
    23:00 +13°C° 0.2 mm 1 mps 740 mmHg 98%
    Show more